This is the latest recevied weather packets stored in our database for station/object KB9MLJ. If no packets are shown the sender has not sent any weather packets the latest 10 day(s).
| Time | Temp. | Humidity | Pressure | Rain* | Wind** | Luminosity | Snow |
|---|---|---|---|---|---|---|---|
| 1777854117 | 18.89° C | 52% | 1007.5 hPa | 0 mm | - | 20 W/m² | - |
| 1777853815 | 18.89° C | 52% | 1007.1 hPa | 0 mm | - | 23 W/m² | - |
| 1777853511 | 18.89° C | 51% | 1007.5 hPa | 0 mm | - | 27 W/m² | - |
| 1777853208 | 18.89° C | 51% | 1007.5 hPa | 0 mm | - | 32 W/m² | - |
| 1777852905 | 18.89° C | 51% | 1007.5 hPa | 0 mm | - | 38 W/m² | - |
| 1777852603 | 18.89° C | 51% | 1007.5 hPa | 0 mm | - | 43 W/m² | - |
| 1777852299 | 18.89° C | 50% | 1007.5 hPa | 0 mm | - | 53 W/m² | - |
| 1777851998 | 18.89° C | 50% | 1007.5 hPa | 0 mm | - | 63 W/m² | - |
| 1777851696 | 18.89° C | 50% | 1007.5 hPa | 0 mm | - | 88 W/m² | - |
| 1777851392 | 18.89° C | 49% | 1007.5 hPa | 0 mm | - | 95 W/m² | - |
| 1777851088 | 18.89° C | 50% | 1007.5 hPa | 0 mm | - | 113 W/m² | - |
| 1777850785 | 18.33° C | 51% | 1007.5 hPa | 0 mm | - | 88 W/m² | - |
| 1777850482 | 18.33° C | 51% | 1007.5 hPa | 0 mm | - | 52 W/m² | - |
| 1777850180 | 18.33° C | 51% | 1007.8 hPa | 0 mm | - | 75 W/m² | - |
| 1777849876 | 18.33° C | 51% | 1007.8 hPa | 0 mm | - | 75 W/m² | - |
| 1777849574 | 18.33° C | 50% | 1007.5 hPa | 0 mm | - | 73 W/m² | - |
| 1777849271 | 18.33° C | 51% | 1007.8 hPa | 0 mm | - | 86 W/m² | - |
| 1777848968 | 18.33° C | 51% | 1007.8 hPa | 0 mm | - | 87 W/m² | - |
| 1777848668 | 18.33° C | 51% | 1007.8 hPa | 0 mm | - | 103 W/m² | - |
| 1777848366 | 18.33° C | 51% | 1007.8 hPa | 0 mm | - | 102 W/m² | - |
| 1777848063 | 18.33° C | 51% | 1007.8 hPa | 0 mm | - | 100 W/m² | - |
| 1777847761 | 18.33° C | 51% | 1008.2 hPa | 0 mm | - | 80 W/m² | - |
| 1777847456 | 18.33° C | 51% | 1007.8 hPa | 0 mm | - | 68 W/m² | - |
| 1777847154 | 18.33° C | 51% | 1008.2 hPa | 0 mm | - | 88 W/m² | - |
| 1777846852 | 18.33° C | 52% | 1007.8 hPa | 0 mm | - | 103 W/m² | - |
* Rain latest hour (hover to see other rain measurements)
** Current wind speed in m/s (hover to see current wind gust speed)